Location: La Fredeussais
(48.1780°N, 1.3980°W)
Time: 09:37:13
(UTC+00:00)

Cosmos 1844 Rocket - Pass Details

Date: 09 May 2021
Orbit: 823 x 845 km, 71.0° (Epoch: 13 June)

Event Time Altitude Azimuth Distance (km) Brightness Sun altitude
Rises 20:55:01 0° 219° (SW) 3,348 5.8 -12.1°
Reaches altitude 10° 20:57:29 10° 224° (SW) 2,420 5.1 -12.4°
Maximum altitude 21:02:56 57° 303° (WNW) 973 3.4 -13.1°
Drops below altitude 10° 21:08:26 10° 22° (NNE) 2,445 5.5 -13.7°
Sets 21:10:57 0° 26° (NNE) 3,385 6.1 -14.0°
